Regional Weather Roundup
Issued by NWS

Home | Current Version | Previous Version | Graphics & Text | Print | Product List | Glossary On
Versions: 1 2 3 4 5 6 7 8 9 10 11 12 13 14 15 16 17 18 19 20 21 22 23 24 25 26 27 28 29 30 31 32 33 34 35 36 37 38 39 40 41 42 43 44 45 46 47 48 49 50
241
ASUS44 KMEG 301910
RWRTN
TENNESSEE HOURLY STATE WEATHER ROUNDUP
NATIONAL WEATHER SERVICE MEMPHIS TN
200 PM CDT SUN APR 30 2017

TNZ002-004-019-021-049-052-054-088>092-302000-
WEST TENNESSEE

CITY           SKY/WX    TMP DP  RH WIND       PRES   REMARKS
MEMPHIS INTL   CLOUDY    71  67  87 S17G29    29.72R
NWS MEMPHIS      N/A     70 N/A N/A MISG        N/A
JACKSON        CLOUDY    71  68  90 S10G20    29.73F
SOMERVILLE     MOSUNNY   70  66  88 S12G20    29.73R
UNION CITY     SUNNY     70  68  94 SE10G21   29.66F
BOLIVAR        MOSUNNY   70  68  94 S7        29.76R
HUNTINGDON     MOSUNNY   75  68  78 S15G24    29.70F
LEXINGTON      MOSUNNY   73  68  83 S14G23    29.77F
SAVANNAH       SUNNY     72  68  88 S12G23    29.77F
$$

TNZ008-025-027-028-033-062-065-066-302000-
NORTH MIDDLE TENNESSEE

CITY           SKY/WX    TMP DP  RH WIND       PRES   REMARKS
NASHVILLE      CLOUDY    83  62  49 S29G43    29.86F
PORTLAND       MOSUNNY   81  64  57 S21G31    29.86F
CLARKSVILLE    CLOUDY    78  64  61 SE15G21   29.79F
SMYRNA         PTSUNNY   82  65  56 S16G26    29.88F
COOKEVILLE     MOSUNNY   81  64  57 S15G30    29.94F
GALLATIN       PTSUNNY   82  64  54 S18G28    29.90F
CROSSVILLE     CLOUDY    75  62  64 S9G23     30.04F
$$

TNZ061-075-076-078-094-096-097-302000-
SOUTH MIDDLE TENNESSEE

CITY           SKY/WX    TMP DP  RH WIND       PRES   REMARKS
FAYETTEVILLE   PTSUNNY   79  64  61 S21G32    29.92S
TULLAHOMA      MOSUNNY   79  63  57 S12       29.95S
WINCHESTER     MOSUNNY   81  64  57 S17       29.95F
MCMINNVILLE    SUNNY     82  64  54 S13G24    29.94F
COLUMBIA       CLOUDY    79  73  83 S14       29.84F
SHELBYVILLE    PTSUNNY   82  66  57 SE20      29.91F
$$

TNZ017-018-042-046-047-302000-
NORTHEAST TENNESSEE

CITY           SKY/WX    TMP DP  RH WIND       PRES   REMARKS
TRI CITIES     MOSUNNY   83  56  39 SW15G22   30.07F
ELIZABETHTON   SUNNY     84  57  39 S12G20    30.08F
$$

TNZ012-013-036-069-073-074-302000-
CENTRAL EAST TENNESSEE

CITY           SKY/WX    TMP DP  RH WIND       PRES   REMARKS
KNOXVILLE      NOT AVBL
OAK RIDGE      MOSUNNY   85  58  39 S10G21    30.02F
DOWNTOWN KNOXV MOSUNNY   86  59  39 S9        30.01F
GATLINBURG     MOSUNNY   84  54  34 S8        30.01F
MORRISTOWN     SUNNY     84  55  37 S12       30.02F
JACKSBORO      SUNNY     81  59  47 SW17G30   30.04F
$$

TNZ083-085-099-302000-
SOUTHEAST TENNESSEE

CITY           SKY/WX    TMP DP  RH WIND       PRES   REMARKS
CHATTANOOGA    CLOUDY    82  65  56 SE10G24   30.01F
$$

SKY/WX REPORTED AS FAIR MEANS FEW OR NO CLOUDS BELOW
12 THOUSAND FEET.





USA.gov is the U.S. government's official web portal to all federal, state and local government web resources and services.